Back to catalog

ONEWEB-0563

AliveCommunicationsPO
NORAD 55800·PAYLOAD·🇬🇧 United Kingdom

Launched Mar 9, 2023 from Cape Canaveral Space Force Station

Loading…

Next Passes (next 24 hours)

TLE

FreshSource: CelesTrak SupGP

Epoch: Sep 14, 2026, 11:34 UTC

1 55800C 23029E   26257.48246946  .00002335  00000+0  57495-2 0  2570
2 55800  87.9129 256.6595 0002075  83.8024  26.1792 13.20768175    11

Track ONEWEB-0563 in real time with AllMySat

Download on the App Store